Temp
63 63 63 63 63 63 63 63 63 63 62 62 62 62 62 62 63 67 76 86 84 75 75 83 81 84 83 78 80 73 57 55 60 61 64 68 67 71 77 72 75 76 75 79 80
63 63 63 63 63 63 62 62 63 62 62 62 62 62 62 62 68 74 84 77 75 74 84 81 81 83 75 76 76 66 55 61 68 70 67 71 73 71 72 71 72 75 79 81 79
62 62 62 63 63 62 62 62 62 63 62 62 61 61 62 61 71 82 77 76 75 77 84 85 86 81 76 74 71 64 62 68 73 75 74 73 71 73 71 66 72 71 73 75 73
62 62 62 62 62 62 62 62 63 63 62 61 61 61 62 67 69 82 77 76 76 81 84 85 81 73 70 70 75 69 75 75 74 77 75 73 75 72 72 72 77 78 77 75 71
61 61 62 62 62 62 62 62 62 62 62 61 62 62 64 73 79 83 78 78 80 85 87 81 77 74 72 71 71 69 71 76 79 76 75 78 73 72 71 78 79 79 77 72 69
60 60 61 61 62 62 62 61 61 61 61 61 63 62 72 71 86 83 85 82 83 80 85 85 82 82 75 72 68 71 72 72 76 75 76 73 70 73 73 78 78 77 73 73 71
60 60 60 61 61 62 62 61 60 61 61 62 65 73 76 80 89 84 86 84 87 90 87 88 88 86 78 71 71 70 68 69 72 73 72 75 66 68 75 78 75 75 75 73 72
60 59 60 60 61 62 62 61 62 62 62 64 66 69 76 88 85 83 82 89 91 90 91 92 88 81 78 73 72 68 62 59 69 74 74 71 58 70 75 76 73 74 75 73 71
59 59 59 60 61 61 61 62 63 64 65 67 67 67 76 90 89 93 90 90 92 93 91 99 84 77 74 66 62 61 58 59 64 74 74 70 61 71 75 75 72 73 73 72 70
59 59 59 60 60 60 60 62 64 64 68 77 83 71 79 85 92 95 96 96 91 89 88 84 74 68 62 63 57 58 60 59 61 71 71 66 65 70 73 74 73 73 73 72 70
59 59 59 59 60 59 59 73 76 73 73 75 78 79 87 94 96 90 95 92 89 85 75 81 71 66 69 70 72 69 68 64 68 74 69 67 67 68 71 72 71 71 72 71 70
59 59 59 59 60 61 56 73 76 82 70 83 82 83 90 91 87 90 94 83 80 73 78 73 66 78 83 76 73 71 66 62 70 75 69 67 67 69 71 71 73 72 73 72 70
58 58 58 59 61 64 70 77 82 80 66 77 84 84 86 89 86 87 91 83 77 73 75 68 76 85 82 76 72 70 67 65 67 72 68 64 62 65 70 70 71 73 75 75 70
57 57 57 57 66 66 73 81 84 77 58 70 77 86 88 84 81 93 93 87 77 75 75 73 79 83 79 75 74 64 75 74 71 64 56 65 51 59 60 64 68 72 73 70 72
57 57 57 57 61 64 78 79 83 75 50 76 79 88 88 83 82 86 94 87 79 78 75 74 77 75 75 76 78 72 75 71 68 60 54 57 52 55 60 63 67 70 71 71 72
57 57 56 62 58 67 73 77 75 59 53 72 81 79 75 79 82 86 86 88 87 78 75 75 80 79 78 83 82 79 71 64 60 56 48 54 53 55 53 61 64 71 72 72 72
57 57 55 68 66 71 73 70 58 52 75 72 73 75 74 74 77 79 77 72 70 63 62 72 74 82 83 75 77 73 60 51 50 47 47 57 55 58 63 68 69 75 77 75 74
55 55 56 67 63 69 68 63 50 68 71 80 78 75 73 76 75 76 72 69 73 70 62 62 63 74 82 74 68 66 61 51 44 45 48 60 52 59 70 71 74 78 76 71 73
54 60 61 68 68 68 63 53 58 68 78 76 77 69 68 74 76 73 70 70 75 74 65 60 65 78 83 81 76 65 59 63 55 55 49 53 59 64 66 70 73 73 67 66 66
54 56 61 74 74 67 59 53 65 78 81 78 67 71 63 69 71 68 69 75 75 79 74 68 61 75 80 82 75 71 69 58 57 46 43 51 53 55 63 64 69 65 60 63 64
54 57 70 76 74 62 53 58 71 82 82 75 70 70 70 68 69 66 70 76 78 79 75 71 64 68 73 67 65 64 61 57 57 53 46 44 51 65 63 65 63 60 60 60 64
54 55 74 75 62 54 55 68 69 81 82 79 76 73 70 71 69 69 71 74 80 79 73 69 61 58 65 72 74 69 64 57 51 53 51 49 51 62 65 64 61 62 60 62 64
53 58 73 74 55 53 63 72 76 78 77 76 74 74 74 68 64 70 73 79 79 77 70 68 59 53 58 64 69 64 65 62 56 53 49 49 53 65 64 61 59 60 62 60 61
54 54 62 64 60 59 59 65 69 79 77 78 75 74 71 69 69 68 72 80 80 77 69 68 59 57 53 59 64 62 69 66 60 49 52 55 58 61 60 60 62 62 62 59 60
53 55 61 57 62 61 62 65 68 69 74 74 72 72 68 62 67 66 71 74 78 72 71 67 59 60 64 69 70 70 69 69 62 61 57 60 59 61 60 61 61 62 61 65 64
51 55 59 58 61 60 56 62 68 70 69 70 67 74 70 63 65 63 68 68 67 72 65 64 60 59 61 69 70 67 69 70 68 68 63 63 59 63 62 59 62 61 63 63 64
58 60 59 55 61 59 60 68 71 69 74 76 72 69 69 72 74 71 71 71 70 66 66 64 60 56 55 64 65 59 65 67 68 68 66 58 64 64 62 64 62 62 62 64 65
MSLP
1020.30 1019.93 1019.34 1018.81 1018.37 1017.98 1017.49 1016.95 1016.74 1016.56 1016.30 1015.79 1015.58 1015.12 1014.73 1014.37 1013.65 1013.83 1012.88 1010.97 1010.69 1010.58 1011.79 1011.77 1012.02 1012.00 1012.53 1012.87 1013.72 1015.44 1017.19 1018.04 1017.91 1018.03 1017.33 1017.07 1016.88 1017.06 1016.70 1017.00 1017.13 1017.17 1017.56 1018.01 1018.52
1020.25 1019.94 1019.29 1018.75 1018.28 1017.93 1017.43 1016.77 1016.52 1016.30 1016.05 1015.59 1015.35 1014.96 1014.58 1014.41 1013.76 1012.69 1010.72 1010.44 1010.38 1011.05 1011.34 1011.41 1011.40 1011.10 1012.23 1012.71 1013.89 1015.09 1016.80 1016.37 1016.29 1016.07 1016.37 1016.41 1015.91 1016.42 1016.95 1017.25 1017.45 1017.61 1017.98 1018.31 1018.58
1020.32 1019.94 1019.26 1018.57 1018.27 1017.68 1017.43 1016.74 1016.26 1015.98 1015.85 1015.43 1015.05 1014.78 1014.34 1014.31 1013.46 1011.47 1010.65 1010.35 1010.58 1010.90 1010.94 1011.35 1011.21 1011.29 1012.24 1013.07 1013.86 1014.61 1015.15 1015.19 1015.18 1015.21 1015.64 1015.96 1016.22 1016.33 1016.55 1017.17 1016.84 1017.32 1017.91 1018.48 1018.89
1020.38 1019.79 1019.15 1018.49 1018.09 1017.58 1017.21 1016.72 1015.99 1015.70 1015.51 1015.25 1014.69 1014.58 1014.19 1013.93 1012.71 1010.66 1010.58 1010.55 1010.68 1010.99 1011.05 1011.18 1011.46 1011.92 1012.52 1013.29 1013.74 1014.54 1014.49 1014.48 1014.64 1015.12 1015.67 1015.74 1016.16 1016.51 1016.39 1016.45 1016.71 1017.35 1017.88 1018.39 1019.05
1020.41 1019.75 1019.18 1018.48 1017.94 1017.40 1016.81 1016.49 1015.83 1015.35 1015.09 1015.02 1014.61 1014.27 1014.18 1013.22 1011.48 1010.23 1010.57 1010.95 1010.76 1011.25 1010.46 1010.63 1010.40 1011.62 1012.50 1013.60 1014.28 1014.23 1014.34 1014.10 1014.30 1014.65 1015.09 1015.42 1015.75 1016.03 1016.51 1016.45 1016.92 1017.54 1018.02 1018.63 1019.22
1020.50 1019.81 1019.25 1018.44 1017.87 1017.11 1016.57 1015.97 1015.49 1014.91 1014.67 1014.77 1014.43 1014.29 1013.72 1012.12 1009.98 1010.19 1010.40 1010.90 1010.86 1010.96 1010.07 1010.04 1009.99 1010.23 1012.06 1013.31 1013.84 1014.28 1014.15 1014.45 1014.32 1014.64 1014.89 1015.60 1016.25 1015.98 1016.66 1016.59 1017.16 1017.41 1017.73 1018.27 1018.91
1020.52 1019.88 1019.11 1018.27 1017.83 1016.91 1016.22 1015.44 1014.89 1014.30 1014.21 1014.35 1014.24 1014.02 1012.94 1011.02 1009.66 1010.12 1010.10 1010.20 1009.93 1010.27 1009.81 1009.50 1009.70 1010.17 1011.63 1013.35 1013.74 1014.20 1014.54 1014.61 1014.49 1014.69 1015.16 1015.59 1016.58 1016.21 1016.38 1016.56 1017.10 1017.39 1017.73 1018.31 1018.78
1020.40 1019.77 1019.03 1018.35 1017.75 1016.71 1015.80 1014.79 1014.21 1013.63 1013.63 1013.95 1014.02 1013.71 1011.83 1009.57 1009.76 1010.39 1010.06 1009.62 1009.29 1009.89 1009.54 1009.46 1010.16 1010.74 1012.13 1013.43 1014.06 1014.59 1014.91 1015.08 1014.59 1014.31 1014.86 1014.96 1015.56 1015.82 1015.99 1016.33 1016.83 1017.09 1017.51 1018.02 1018.42
1020.29 1019.82 1019.12 1018.32 1017.54 1016.60 1015.48 1013.82 1013.45 1013.16 1013.34 1013.71 1013.83 1013.20 1011.02 1009.25 1009.83 1009.20 1009.44 1009.47 1008.94 1008.91 1009.09 1009.18 1010.20 1011.73 1012.65 1013.83 1014.71 1015.22 1015.21 1015.28 1014.62 1014.02 1014.50 1015.04 1015.14 1015.42 1015.65 1015.89 1016.52 1016.96 1017.21 1017.85 1018.39
1020.27 1019.83 1019.04 1018.16 1017.51 1016.53 1015.28 1013.15 1013.24 1013.30 1013.47 1013.37 1012.96 1012.73 1010.41 1009.18 1008.61 1008.48 1008.52 1008.62 1008.88 1008.83 1008.96 1009.61 1010.78 1012.16 1013.65 1013.99 1014.44 1015.00 1014.51 1014.61 1014.50 1013.54 1014.08 1014.62 1014.61 1015.10 1015.53 1015.87 1016.01 1016.38 1016.83 1017.26 1017.74
1020.29 1019.93 1019.05 1018.17 1017.18 1016.66 1015.56 1013.44 1013.46 1013.43 1012.87 1012.74 1012.19 1011.51 1009.94 1009.03 1008.15 1008.42 1008.20 1008.43 1008.63 1009.06 1009.79 1010.05 1010.92 1011.67 1011.90 1012.45 1012.39 1013.12 1013.50 1013.75 1013.18 1013.12 1013.98 1014.88 1014.79 1014.93 1015.03 1015.53 1015.73 1015.88 1015.94 1016.46 1017.01
1020.42 1019.88 1019.09 1017.97 1016.79 1016.21 1016.32 1015.02 1013.89 1013.27 1012.60 1011.45 1010.91 1010.51 1009.50 1009.13 1008.85 1008.46 1008.29 1008.85 1009.08 1009.76 1010.13 1010.61 1011.05 1010.59 1010.41 1010.83 1011.73 1012.11 1013.13 1013.43 1013.08 1012.44 1013.56 1014.37 1014.19 1014.53 1014.90 1014.53 1014.56 1015.04 1015.35 1015.74 1016.87
1020.49 1019.87 1018.89 1017.71 1016.38 1015.72 1015.76 1014.24 1013.47 1012.60 1012.69 1010.91 1009.80 1009.28 1008.66 1008.51 1008.63 1008.45 1008.57 1008.93 1009.36 1009.92 1010.21 1011.03 1010.41 1009.35 1009.05 1009.89 1010.66 1010.93 1011.54 1012.32 1012.50 1012.98 1013.86 1014.21 1014.89 1015.30 1015.78 1015.76 1015.62 1015.61 1014.94 1015.12 1015.75
1020.43 1019.72 1019.11 1017.90 1016.51 1016.41 1014.90 1013.58 1012.92 1013.06 1012.84 1010.76 1009.25 1007.98 1007.99 1008.19 1008.39 1007.95 1008.26 1008.83 1009.40 1009.84 1010.15 1010.55 1009.89 1009.96 1009.56 1009.24 1009.66 1010.25 1010.63 1011.74 1012.60 1013.33 1014.69 1015.08 1016.63 1016.44 1016.61 1015.66 1015.54 1015.31 1015.40 1014.98 1015.16
1020.33 1019.80 1019.33 1019.06 1018.37 1016.96 1014.61 1013.71 1012.98 1012.96 1012.29 1009.55 1008.41 1007.20 1007.56 1008.41 1008.24 1007.81 1007.75 1008.65 1009.24 1009.71 1010.42 1009.94 1009.73 1009.52 1009.53 1009.01 1009.03 1009.78 1010.53 1011.55 1012.84 1014.01 1015.33 1016.15 1016.63 1016.71 1016.35 1014.78 1014.40 1014.58 1014.59 1014.51 1014.38
1020.20 1019.75 1019.40 1018.87 1018.47 1015.79 1014.93 1013.84 1013.54 1013.67 1011.42 1009.23 1007.95 1007.61 1008.16 1008.34 1008.26 1008.03 1008.02 1008.31 1008.81 1009.79 1010.08 1009.92 1009.45 1009.28 1008.68 1008.40 1008.83 1009.79 1011.25 1012.36 1013.74 1015.12 1016.30 1016.51 1016.78 1016.25 1016.21 1014.98 1014.21 1013.76 1012.65 1013.32 1013.57
1019.94 1019.32 1019.37 1018.60 1016.79 1015.15 1015.03 1014.71 1014.51 1013.50 1010.68 1009.30 1008.38 1008.04 1008.38 1008.68 1008.60 1008.63 1008.79 1009.16 1009.69 1010.40 1010.71 1010.28 1009.84 1008.92 1008.50 1008.66 1009.12 1010.10 1012.02 1014.09 1015.41 1016.18 1016.87 1016.45 1016.38 1015.23 1014.42 1014.04 1013.00 1011.68 1011.35 1011.47 1012.85
1019.54 1018.65 1017.60 1016.74 1015.74 1015.85 1015.82 1015.61 1014.52 1012.24 1010.45 1008.91 1008.42 1008.45 1008.77 1008.65 1008.72 1008.88 1009.27 1009.58 1009.76 1010.18 1010.96 1011.10 1010.40 1009.34 1008.77 1008.91 1009.78 1011.03 1012.78 1014.76 1015.94 1016.99 1017.13 1016.39 1015.87 1014.51 1013.56 1012.79 1012.39 1011.57 1011.27 1011.42 1012.22
1019.10 1017.94 1017.44 1014.91 1015.39 1016.07 1016.28 1015.91 1013.90 1011.70 1009.94 1009.07 1008.44 1008.85 1008.97 1008.66 1008.64 1008.83 1009.11 1009.45 1009.42 1009.80 1010.62 1011.17 1010.53 1009.48 1009.09 1009.16 1010.05 1011.98 1013.41 1014.34 1015.38 1016.21 1017.06 1016.31 1015.16 1014.29 1013.80 1013.31 1012.65 1013.11 1013.78 1013.74 1013.83
1020.12 1018.75 1016.65 1013.97 1014.79 1015.80 1016.72 1015.67 1013.27 1011.05 1009.59 1008.95 1009.08 1009.17 1009.32 1008.85 1009.01 1009.07 1009.20 1008.63 1008.81 1008.92 1009.48 1010.69 1011.08 1010.05 1009.56 1009.30 1010.93 1011.70 1013.33 1014.26 1015.53 1017.18 1017.35 1016.28 1015.45 1014.67 1014.21 1014.03 1013.83 1014.88 1015.50 1014.74 1014.21
1020.35 1018.97 1014.10 1013.55 1014.46 1015.95 1016.48 1015.07 1012.73 1010.34 1009.33 1009.07 1009.11 1009.29 1009.36 1009.21 1008.79 1008.95 1008.81 1008.46 1008.38 1008.52 1009.17 1010.05 1011.07 1010.59 1010.44 1010.45 1011.18 1012.36 1013.45 1014.89 1015.90 1017.13 1017.47 1017.05 1015.32 1013.58 1013.46 1013.71 1014.60 1015.70 1015.64 1015.16 1014.36
1020.19 1018.49 1014.02 1013.46 1015.09 1015.89 1015.88 1014.03 1012.25 1010.48 1009.36 1009.04 1008.92 1009.30 1009.30 1009.13 1009.04 1008.94 1008.87 1008.41 1007.98 1008.00 1009.54 1010.21 1011.28 1011.63 1011.38 1010.95 1010.74 1011.37 1012.84 1014.39 1015.84 1016.89 1017.10 1016.95 1015.34 1014.18 1013.96 1014.36 1015.01 1015.48 1015.87 1015.30 1014.88
1020.46 1018.12 1014.31 1014.30 1015.75 1016.22 1014.97 1013.45 1012.23 1010.46 1009.87 1009.56 1009.37 1009.53 1009.30 1009.46 1009.48 1009.03 1008.65 1008.30 1008.06 1008.64 1009.51 1010.33 1011.80 1012.48 1012.41 1011.92 1011.29 1012.04 1012.50 1013.50 1014.67 1015.55 1016.39 1016.67 1015.18 1014.36 1014.19 1014.75 1015.91 1015.86 1016.08 1015.80 1015.46
1020.77 1019.04 1016.15 1015.34 1015.83 1015.54 1014.93 1013.52 1011.91 1010.16 1009.87 1009.68 1009.64 1009.56 1009.70 1009.75 1009.60 1009.72 1009.15 1008.59 1008.69 1009.16 1009.69 1010.15 1011.97 1012.64 1012.94 1012.35 1011.88 1012.14 1011.82 1012.35 1013.12 1014.94 1015.38 1014.91 1014.46 1014.41 1014.58 1014.93 1015.05 1015.26 1015.71 1015.73 1015.10
1020.77 1019.19 1017.50 1016.94 1016.02 1015.30 1014.80 1013.59 1012.37 1011.02 1010.16 1009.94 1009.89 1009.94 1010.29 1010.52 1010.20 1010.46 1009.97 1009.50 1009.44 1009.71 1010.08 1011.12 1012.39 1012.42 1012.30 1012.02 1011.51 1011.65 1011.75 1011.80 1012.50 1012.76 1013.70 1013.38 1013.87 1013.85 1014.70 1014.96 1015.09 1015.45 1015.40 1015.25 1014.93
1020.74 1019.44 1018.04 1017.22 1015.92 1014.97 1014.69 1013.33 1012.24 1011.61 1010.89 1010.32 1010.39 1010.41 1010.38 1010.99 1010.96 1010.88 1010.68 1010.46 1010.41 1010.30 1010.78 1011.67 1012.42 1012.66 1012.65 1012.04 1011.84 1011.89 1011.74 1011.25 1011.47 1012.10 1013.00 1013.16 1014.14 1014.31 1014.50 1014.98 1014.89 1015.35 1015.48 1015.14 1014.87
1019.87 1018.95 1018.55 1017.05 1015.89 1015.08 1014.19 1013.04 1012.07 1011.66 1010.94 1010.58 1010.72 1010.72 1010.83 1010.90 1010.70 1010.54 1010.47 1010.72 1010.70 1010.95 1011.40 1012.15 1012.92 1013.53 1013.49 1012.85 1012.40 1012.34 1012.22 1011.76 1011.87 1011.92 1013.18 1013.63 1013.81 1014.37 1014.98 1015.19 1015.04 1015.16 1015.16 1014.92 1014.85
Wind_Speed
16 17 16 17 17 15 16 16 15 15 13 13 10 11 11 12 10 3 4 9 6 9 5 1 2 6 6 5 7 7 4 5 6 7 5 2 5 1 4 7 1 3 5 12 10
19 18 17 16 18 16 15 17 15 15 14 13 10 11 10 9 2 3 7 7 7 12 4 1 4 4 4 4 3 6 3 8 6 8 9 7 14 9 6 3 1 10 11 11 12
18 19 19 18 18 18 14 16 16 15 14 13 10 10 10 6 0 5 4 7 6 7 2 4 4 2 7 3 2 5 7 7 5 6 6 12 10 4 13 5 11 16 11 11 13
19 19 20 19 20 18 15 15 16 14 13 12 11 9 10 2 3 2 6 6 4 2 1 3 4 4 4 5 4 6 6 8 6 7 8 12 10 5 5 7 8 13 14 11 11
19 20 20 20 21 19 17 16 16 14 13 10 9 9 4 3 6 5 7 6 2 3 3 3 1 6 8 3 2 5 5 4 11 10 7 8 9 7 4 12 13 14 10 10 9
18 19 20 20 22 21 18 17 15 15 12 8 7 7 1 1 2 10 9 4 4 1 4 6 6 6 8 5 3 2 4 2 7 10 10 11 5 7 5 12 14 13 11 11 13
18 18 20 22 22 22 20 20 15 15 10 6 4 2 2 9 4 8 11 7 5 6 2 4 3 4 5 5 3 3 5 5 6 7 5 13 2 5 11 10 13 12 12 11 12
17 19 20 22 22 23 24 24 20 14 6 5 3 1 5 3 8 4 2 6 6 6 5 5 1 7 5 5 5 5 6 3 4 8 8 6 7 9 13 14 12 12 14 14 15
17 19 20 22 22 24 25 30 18 2 5 5 1 0 5 7 5 9 7 5 4 5 5 4 4 5 4 5 5 7 1 1 8 7 7 6 4 13 16 15 13 13 13 13 10
17 19 21 22 22 22 27 23 2 6 2 4 2 2 3 4 4 4 8 4 3 4 5 4 5 5 5 4 5 6 4 3 6 4 8 7 8 15 16 15 14 13 13 14 14
16 18 20 23 23 18 14 8 9 7 3 6 5 5 11 6 4 3 4 3 3 5 2 5 5 8 12 12 7 7 3 4 8 6 4 6 8 16 17 14 10 12 14 13 15
16 18 20 23 25 22 2 3 7 7 8 9 9 7 10 3 3 4 4 2 2 2 4 7 6 14 13 9 8 6 6 8 8 6 7 6 9 13 16 19 18 16 15 14 11
14 16 20 25 28 4 4 5 7 2 1 9 6 5 6 8 4 6 8 3 2 3 4 5 11 18 3 4 4 6 8 3 4 3 4 2 5 4 2 6 8 10 16 13 16
14 15 17 27 4 7 7 8 13 2 5 8 4 7 3 3 2 6 9 5 1 7 4 6 4 11 6 2 5 2 2 6 4 2 2 3 2 4 6 9 10 12 12 8 14
14 13 14 6 6 5 7 13 13 5 3 3 4 3 6 8 3 3 6 4 7 7 4 11 8 9 7 6 4 5 5 3 4 5 3 5 5 6 2 13 15 9 10 10 16
14 13 11 2 3 9 10 13 5 7 4 3 7 5 4 4 4 3 4 2 6 4 1 9 2 4 5 4 4 6 2 10 6 3 4 3 4 4 6 10 6 11 17 14 16
16 16 2 2 7 4 8 5 6 3 6 4 5 3 6 5 5 5 4 2 6 1 6 8 5 8 2 6 5 6 8 5 6 6 5 5 2 8 5 11 17 15 8 18 15
19 19 8 7 4 3 5 6 2 6 7 4 4 3 7 6 7 5 3 6 3 4 3 1 13 1 5 3 3 6 7 5 2 3 3 5 4 5 6 7 6 8 5 7 14
20 4 5 7 6 4 6 3 6 4 4 7 4 3 4 4 5 5 5 6 9 10 8 5 8 5 4 4 3 3 5 3 5 5 2 4 6 1 5 6 7 9 18 12 8
5 5 6 3 8 6 6 4 5 4 4 5 4 3 3 4 7 7 7 6 5 10 6 7 4 4 4 7 10 6 4 3 4 2 5 6 4 5 5 6 4 13 5 7 4
2 5 7 7 6 6 3 7 6 10 4 3 2 3 4 3 5 5 7 4 4 4 9 6 6 9 4 0 8 1 2 6 4 5 4 3 7 7 5 8 4 7 4 5 3
2 2 5 4 5 1 3 6 7 8 4 4 3 1 3 4 5 3 4 1 6 5 4 2 6 3 4 8 4 5 6 6 6 4 2 5 9 6 5 7 8 3 3 7 7
1 5 5 6 2 3 6 8 5 3 5 5 5 2 3 3 4 3 1 1 5 6 4 1 3 3 6 8 5 3 4 4 5 4 5 5 8 1 2 3 1 4 7 3 5
2 3 6 5 2 4 1 6 4 3 1 3 3 2 6 7 4 4 6 4 5 3 5 8 3 7 7 7 4 5 11 8 6 5 5 8 7 6 3 1 5 5 2 9 5
1 5 4 3 5 6 5 3 6 4 2 3 5 3 3 4 6 6 7 7 6 4 3 6 2 1 4 5 2 6 8 6 6 5 8 6 6 3 4 7 6 4 5 6 1
1 1 5 4 5 5 7 4 2 3 1 4 2 6 7 4 2 2 3 5 1 5 3 3 2 1 4 4 6 3 6 13 8 4 2 9 4 4 2 1 5 3 5 7 7
3 4 4 6 4 2 4 6 5 2 5 4 3 3 7 4 3 4 4 3 4 2 3 2 3 3 5 4 5 6 5 2 3 6 3 5 6 5 2 7 6 7 6 6 8
Wind_Direction
342 332 330 330 327 331 326 331 331 327 324 317 323 312 312 320 311 140 233 214 199 171 121 123 195 208 156 141 121 122 73 150 183 151 230 176 152 21 29 107 4 83 88 117 119
340 331 328 330 325 329 327 327 333 329 326 319 322 311 309 328 335 252 253 166 175 141 184 139 286 316 107 149 101 93 109 212 184 167 181 185 126 153 122 115 98 95 107 114 104
337 329 329 330 326 325 328 325 331 330 328 320 316 310 302 311 74 251 147 190 157 169 332 15 312 22 66 110 196 170 175 173 207 176 178 155 135 140 144 176 168 146 130 124 111
337 331 330 329 323 325 326 322 323 328 324 318 312 309 305 235 143 265 186 195 142 188 9 129 77 37 81 29 39 50 14 143 166 190 164 148 144 136 181 186 147 132 127 115 109
333 332 327 327 320 324 321 319 317 319 313 313 311 314 288 17 252 152 157 129 163 102 246 76 324 160 86 73 12 80 1 60 138 128 126 124 139 133 110 121 121 129 123 131 132
331 330 323 326 321 321 319 313 310 309 302 304 305 323 181 11 230 146 142 123 252 148 279 172 208 170 113 106 90 168 117 160 135 147 133 131 152 116 192 137 140 143 156 153 148
329 326 325 326 321 320 319 312 307 302 289 282 280 281 93 231 182 177 158 199 199 168 231 282 198 114 111 115 283 62 90 16 142 153 126 115 231 191 167 162 160 165 168 152 164
330 328 326 322 321 322 319 313 312 300 262 249 200 239 235 220 142 146 224 300 258 206 226 182 42 85 63 124 18 31 63 46 219 152 167 120 242 181 175 177 183 180 171 168 180
332 327 323 321 323 322 320 312 311 304 163 178 163 104 262 312 173 213 161 230 284 260 200 167 71 104 56 76 27 346 21 150 310 206 139 198 246 183 180 186 198 187 186 175 175
333 326 323 321 323 322 320 306 201 108 174 205 234 32 279 219 207 206 196 233 259 336 14 149 70 92 33 105 241 207 207 225 231 273 183 201 240 181 191 199 203 192 193 182 182
334 326 323 319 319 321 338 356 15 351 73 210 250 261 285 305 133 203 197 353 15 63 15 342 24 277 223 202 188 182 322 156 264 213 107 267 251 191 192 206 214 208 193 185 190
329 326 323 320 319 323 231 340 246 243 317 273 242 249 258 193 333 224 118 129 40 291 4 5 292 268 279 182 213 170 172 217 251 93 134 214 253 190 195 204 211 203 204 187 178
325 325 328 323 317 337 279 249 311 26 337 296 225 202 231 128 213 227 140 167 212 300 283 149 262 302 240 143 212 250 131 212 186 97 31 299 35 76 9 335 297 264 213 200 177
324 329 331 326 25 324 299 302 338 325 54 277 207 253 183 120 267 200 181 150 267 232 277 259 287 346 13 287 145 54 164 168 165 95 7 354 313 18 336 292 289 266 239 205 191
322 324 330 333 288 323 270 332 323 57 50 230 199 219 154 150 182 269 177 111 234 261 76 274 282 324 251 250 151 207 133 123 82 85 94 2 78 276 157 260 249 262 236 213 195
316 314 340 40 273 246 323 307 50 45 283 266 174 192 129 180 231 285 175 139 205 243 266 249 42 245 236 360 59 121 143 36 52 55 32 245 154 236 185 229 298 257 220 203 194
312 302 234 272 246 335 345 23 46 125 305 205 179 152 158 212 258 167 238 234 176 129 289 335 325 320 343 21 14 87 46 356 1 2 231 229 50 248 215 234 232 239 247 209 181
311 307 231 215 228 9 20 50 85 251 272 273 152 154 180 178 233 186 196 204 251 142 115 122 318 85 279 161 181 79 116 155 354 312 288 273 284 270 220 230 247 4 354 183 181
310 322 281 256 183 125 68 65 214 259 331 337 58 144 240 214 192 163 190 205 206 174 177 159 256 299 276 66 78 15 43 249 111 160 18 232 282 244 302 324 322 14 40 25 16
331 336 262 186 144 69 72 245 257 261 343 12 68 64 309 250 167 151 195 222 224 187 156 213 286 219 267 76 12 120 171 17 16 346 322 287 294 250 262 267 309 50 30 8 48
12 351 257 159 94 56 153 242 285 288 14 22 34 357 298 305 207 188 215 309 221 248 156 159 137 275 15 60 173 60 50 44 111 138 186 309 282 238 193 213 231 91 345 23 113
42 319 291 48 63 76 184 216 331 302 351 309 19 282 290 359 22 99 169 189 301 175 128 158 146 149 193 305 196 158 160 148 127 229 188 149 275 342 7 71 113 154 124 60 128
294 260 302 97 157 278 284 288 253 287 1 358 1 52 345 6 26 49 8 27 15 85 133 195 17 52 359 351 355 275 190 134 128 108 187 142 261 163 78 65 181 164 167 185 205
32 326 313 45 146 166 287 279 317 292 301 301 294 330 16 353 4 38 349 0 43 82 120 87 107 146 178 210 187 301 305 200 146 110 182 226 280 209 200 128 324 317 108 194 211
113 251 223 275 286 220 155 280 322 313 255 25 320 7 354 334 19 26 6 357 23 2 57 95 128 173 212 236 5 351 328 243 200 183 166 220 199 268 186 194 232 278 316 306 217
174 32 346 280 285 174 151 256 242 296 7 271 204 331 54 77 115 335 21 33 350 343 52 13 251 90 328 357 7 327 299 56 31 317 352 71 359 293 78 47 265 231 286 292 285
278 305 113 269 326 73 218 215 260 74 289 116 80 99 39 337 269 260 206 204 231 254 174 129 119 75 278 356 10 355 338 48 91 90 72 176 196 166 169 237 247 258 227 247 257